This is the latest recevied weather packets stored in our database for station/object HK6LRQ-22. If no packets are shown the sender has not sent any weather packets the latest 1 day(s).
| Time | Temp. | Humidity | Pressure | Rain* | Wind** | Luminosity | Snow |
|---|---|---|---|---|---|---|---|
| 1778106944 | 22.78° C | 80% | 1010 hPa | 0 mm | - | - | - |
| 1778105143 | 22.78° C | 80% | 1010 hPa | 0 mm | - | - | - |
| 1778103342 | 23.33° C | 80% | 1009 hPa | 0 mm | - | - | - |
| 1778099740 | 23.89° C | 78% | 1009 hPa | 0 mm | - | - | - |
| 1778097939 | 24.44° C | 77% | 1010 hPa | 0 mm | - | - | - |
| 1778096138 | 24.44° C | 78% | 1010 hPa | 0 mm | - | - | - |
| 1778094337 | 23.89° C | 83% | 1011 hPa | 0 mm | - | - | - |
| 1778092536 | 23.33° C | 82% | 1010 hPa | 0 mm | - | - | - |
| 1778090735 | 23.89° C | 82% | 1012 hPa | 0 mm | - | - | - |
| 1778088934 | 23.33° C | 83% | 1012 hPa | 0 mm | - | - | - |
| 1778087133 | 23.89° C | 83% | 1013 hPa | 0 mm | - | - | - |
| 1778085332 | 23.89° C | 83% | 1013 hPa | 0 mm | - | - | - |
| 1778083531 | 24.44° C | 83% | 1014 hPa | 0 mm | - | - | - |
| 1778079929 | 21.67° C | 93% | 1016 hPa | 0 mm | - | - | - |
| 1778065520 | 17.78° C | 91% | 1016 hPa | 0 mm | - | - | - |
| 1778063719 | 17.78° C | 91% | 1016 hPa | 0 mm | - | - | - |
| 1778058316 | 17.78° C | 91% | 1016 hPa | 0 mm | - | - | - |
| 1778056515 | 17.78° C | 91% | 1015 hPa | 0 mm | - | - | - |
| 1778054714 | 17.78° C | 91% | 1015 hPa | 0 mm | - | - | - |
| 1778052913 | 17.78° C | 91% | 1015 hPa | 0 mm | - | - | - |
| 1778051112 | 17.78° C | 91% | 1016 hPa | 0 mm | - | - | - |
| 1778049311 | 17.78° C | 90% | 1015 hPa | 0 mm | - | - | - |
| 1778045708 | 18.33° C | 89% | 1016 hPa | 0 mm | - | - | - |
| 1778040305 | 18.89° C | 87% | 1017 hPa | 0 mm | - | - | - |
| 1778038504 | 18.89° C | 87% | 1016 hPa | 0 mm | - | - | - |
* Rain latest hour (hover to see other rain measurements)
** Current wind speed in m/s (hover to see current wind gust speed)